Home > Weather > Emmerich am Rhein > Past weeks

Flag for Germany Past Weather in Emmerich am Rhein, North Rhine-Westphalia, Germany — Yesterday and Last 2 Weeks

Now
66 °F

Partly sunny.


Feels Like: 66 °F
Forecast: 55 / 67 °F
Wind: 8 mph from Southwest

Location: Niederrhein

Current Time: Jul 30, 2016 at 1:16:11 PM

Latest Report: Jul 30, 2016 at 12:20 PM


Visibility: N/A

Pressure: 29.92 "Hg

Humidity: 78%

Dew Point: 59 °F

Location of Emmerich am RheinLocation

Past Weather in Emmerich am Rhein — Graph

°F

Emmerich am Rhein Temperature Yesterday

Maximum temperature yesterday: 75 °F (at 3:50 PM)
Minimum temperature yesterday: 61 °F (at 4:50 AM)
Average temperature yesterday: 67 °F

High & Low Weather Summary for the Past Weeks

 TemperatureHumidityPressure
High95 °F (Jul 20, 4:50 PM)100% (Jul 18, 4:50 AM)30.30 "Hg (Jul 18, 4:50 AM)
Low57 °F (Jul 18, 4:50 AM)28% (Jul 20, 4:50 PM)29.83 "Hg (Jul 20, 3:50 PM)
Average71 °F72%30.06 "Hg
* Reported Jul 15 11:20 AM — Jul 30 11:50 AM, Emmerich am Rhein, Weather by CustomWeather, © 2016

Note: Actual official high and low records may vary slightly from our data, if they occured in-between our weather recording intervals... More about our weather records

Advertising

Emmerich am Rhein Weather History for the Previous 24 Hours

Scroll right to see more
 ConditionsComfort  
Time TempWeatherWind HumidityBarometerVisibility
11:50 AM
Sat, Jul 30
68 °FPartly sunny.8 mph73%29.92 "HgN/A
11:20 AM68 °FPartly sunny.9 mph73%29.92 "HgN/A
10:50 AM64 °FPartly sunny.9 mph83%29.92 "HgN/A
10:20 AM64 °FPartly sunny.10 mph83%29.92 "HgN/A
9:50 AM64 °FPartly sunny.9 mph83%29.92 "HgN/A
9:20 AM63 °FPartly sunny.8 mph83%29.89 "HgN/A
8:50 AM63 °FPartly sunny.9 mph83%29.89 "HgN/A
8:20 AM61 °FScattered clouds.10 mph88%29.89 "HgN/A
7:50 AM61 °FPassing clouds.7 mph88%29.89 "HgN/A
7:20 AM59 °FPassing clouds.7 mph88%29.89 "HgN/A
6:50 AM59 °FPassing clouds.6 mph88%29.89 "HgN/A
6:20 AM59 °FClear.7 mph88%29.89 "Hg10 mi
5:50 AM57 °FClear.6 mph94%29.89 "Hg10 mi
5:20 AM59 °FClear.6 mph88%29.89 "Hg10 mi
4:50 AM59 °FClear.6 mph88%29.89 "Hg10 mi
11:50 PM
Fri, Jul 29
63 °FClear.2 mph83%29.89 "Hg6 mi
11:20 PM63 °FSunny.2 mph83%29.89 "Hg10 mi
10:50 PM63 °FSunny.No wind83%29.89 "Hg10 mi
10:20 PM63 °FSunny.3 mph83%29.89 "Hg10 mi
9:50 PM64 °FSunny.5 mph78%29.89 "Hg10 mi
9:20 PM66 °FSunny.5 mph73%29.89 "Hg10 mi
8:50 PM66 °FSunny.6 mph73%29.89 "Hg10 mi
8:20 PM68 °FSunny.9 mph69%29.89 "Hg10 mi
7:50 PM68 °FPassing clouds.12 mph69%29.86 "HgN/A
7:20 PM70 °FSunny.12 mph64%29.86 "Hg10 mi
6:50 PM72 °FSunny.18 mph61%29.86 "Hg10 mi
6:20 PM72 °FPassing clouds.18 mph65%29.86 "HgN/A
5:50 PM72 °FScattered clouds.14 mph69%29.86 "HgN/A
5:20 PM73 °FPartly sunny.13 mph61%29.86 "HgN/A
4:50 PM73 °FScattered clouds.9 mph61%29.86 "HgN/A
4:20 PM73 °FScattered clouds.12 mph61%29.86 "HgN/A
3:50 PM75 °FScattered clouds.15 mph57%29.86 "HgN/A
3:20 PM73 °FScattered clouds.12 mph65%29.86 "HgN/A
2:50 PM72 °FPartly sunny.10 mph69%29.86 "HgN/A
2:20 PM72 °FPartly sunny.10 mph65%29.86 "HgN/A
1:50 PM72 °FPassing clouds.7 mph73%29.86 "HgN/A
1:20 PM68 °FSprinkles. Partly sunny.9 mph78%29.89 "Hg5 mi
Weather by CustomWeather, © 2016

See weather overviewHow to use our weather pages